Weather in Krestovozdvizhenka

Russia / Amur Oblast     49°46′27″N   127°58′10″E
temp.,
°C
wind,
m/s
gust,
m/s
humid.,
%
clouds,
%
prec.,
mm/h
press.,
hPa
HPBL,
m
25 january, tue
tue2500:00−27ese1110095 0.0 10279
03:00−23ese1199100 0.0 102720
06:00−24ese1199100 0.0 10269
09:00−23e1199100 0.0 102628
12:00−17ene1192100 0.0 1025129
15:00−14ne1190100 0.0 1024178
18:00−18nne1198100 0.0 10249
21:00−20n11100100 0.0 10249
26 january, wed
wed2600:00−21nnw11100100 0.0 102510
03:00−22n1199100 0.0 10259
06:00−23nnw11100100 0.0 102510
09:00−24nnw2210099 0.0 102723
12:00−19nnw239471 0.0 1027156
15:00−17nw129214 0.0 1026160
18:00−24ne001005 0.0 10279
21:00−26wsw1110067 0.0 10289
27 january, thu
thu2700:00−27wnw1110087 0.0 10299
03:00−28wnw2210081 0.0 102911
06:00−29wnw2210027 0.0 102910
09:00−28wnw22997 0.0 103016
12:00−16nw25824 0.0 1028191
15:00−14w01884 0.0 102621
18:00−22sw11985 0.0 10269
21:00−24w221005 0.0 102513
28 january, fri
fri2800:00−23wnw34975 0.0 102340
03:00−22wnw379184 0.0 102281
06:00−18wnw4118868 0.0 1021241
09:00−19wnw410905 0.0 1021164
12:00−15nnw610795 0.0 1020871
15:00−14nnw510775 0.0 1019922
18:00−23nw339335 0.0 102021
21:00−23wnw389278 0.0 102093
29 january, sat
sat2900:00−23nw411905 0.0 1019131
03:00−25wnw339491 0.0 102038
06:00−27wnw359466 0.0 101953
09:00−25nw38946 0.0 101989
12:00−16nw498222 0.0 1019578
15:00−14nw398218 0.0 1018619
18:00−21wnw229724 0.0 10199
21:00−20wnw379445 0.0 101980